[Date Prev][Date Next][Thread Prev][Thread Next] - [Date Index][Thread Index][Author Index]
2 Line ISS Keps 6-18
- Subject: [sarex] 2 Line ISS Keps 6-18
- From: "Dave Larsen PhD" <doc@xxxxxxxxxxx>
- Date: Tue, 18 Jun 2002 03:11:35 -0700
ISS
1 25544U 98067A 02169.11295493 .00015923 00000-0 21579-3 0 5759
2 25544 51.6399 48.2647 0007212 244.8842 250.9172 15.57825247204176
----
Via the sarex mailing list at AMSAT.ORG courtesy of AMSAT-NA.
To unsubscribe, send "unsubscribe sarex" to Majordomo@amsat.org
AMSAT Home